AJ5TT Weather Reports


time (UTC)temp
C
wind
direction
speed
KPH
gust
KPH
rain 1hr
cm
rain 24hr
cm
rain mn
cm
humidity
%
barometer
mb
20260903003108 30 0 1.6 12.9 0.00 0.00 0.00 79 1013.8
20260903001606 30 188 6.4 14.5 0.00 0.00 0.00 77 1013.1
20260903000108 30 252 4.8 12.9 0.00 0.00 0.00 76 1013.1
20260902234610 31 149 4.8 12.9 0.00 0.00 0.00 74 1013.2
20260902233105 31 151 4.8 14.5 0.00 0.00 0.00 71 1013.2
20260902231609 31 225 4.8 17.7 0.00 0.00 0.00 70 1013.1
20260902230105 32 157 4.8 16.1 0.00 0.00 0.00 69 1013.1
20260902224623 32 119 6.4 16.1 0.00 0.00 0.00 66 1013.0
20260902223059 33 223 9.7 20.9 0.00 0.00 0.00 63 1013.0
20260902221606 33 167 4.8 20.9 0.00 0.00 0.00 61 1013.0
20260902220116 33 210 8.0 17.7 0.00 0.00 0.00 60 1013.0
20260902214601 33 236 8.0 12.9 0.00 0.03 0.00 58 1013.0
20260902213059 34 196 3.2 11.3 0.00 0.03 0.00 57 1013.0
20260902211605 34 229 4.8 9.7 0.00 0.03 0.00 57 1013.2
20260902210107 35 178 4.8 11.3 0.00 0.03 0.00 56 1013.2
20260902204603 35 232 4.8 14.5 0.00 0.03 0.00 57 1013.3
20260902203103 35 176 6.4 14.5 0.00 0.03 0.00 58 1013.4
20260902201605 35 46 3.2 12.9 0.00 0.03 0.00 60 1013.6
20260902194603 34 219 4.8 11.3 0.00 0.03 0.00 61 1014.0
20260902193058 33 242 6.4 12.9 0.00 0.03 0.00 64 1014.2
20260902191554 33 234 4.8 17.7 0.00 0.03 0.00 64 1014.3
20260902190112 33 223 6.4 16.1 0.00 0.03 0.00 64 1014.5
20260902184602 33 259 6.4 12.9 0.00 0.03 0.00 66 1014.5
20260902183101 32 211 6.4 16.1 0.00 0.03 0.00 67 1014.7
20260902181557 32 224 6.4 12.9 0.00 0.03 0.00 67 1014.9
20260902180059 32 203 4.8 12.9 0.00 0.03 0.00 70 1015.2
20260902174605 31 222 4.8 12.9 0.00 0.03 0.00 68 1015.7
20260902173103 32 208 8.0 19.3 0.00 0.03 0.00 70 1015.8
20260902171609 31 219 8.0 16.1 0.00 0.03 0.00 72 1015.9
20260902170106 31 242 4.8 17.7 0.00 0.03 0.00 74 1016.2
20260902164609 30 213 4.8 14.5 0.00 0.03 0.00 78 1016.4
20260902163108 30 222 6.4 17.7 0.00 0.03 0.00 78 1016.3
20260902161609 30 226 9.7 19.3 0.00 0.03 0.00 78 1016.4
20260902160117 30 250 8.0 19.3 0.00 0.03 0.00 81 1016.4
20260902154605 29 249 8.0 17.7 0.00 0.03 0.00 83 1016.4
20260902153101 29 232 3.2 14.5 0.00 0.03 0.00 84 1016.4
20260902151614 28 246 4.8 14.5 0.00 0.03 0.00 85 1016.2
20260902150104 28 242 4.8 8.0 0.00 0.03 0.00 85 1016.2
20260902144559 28 252 3.2 6.4 0.00 0.03 0.00 85 1016.2
20260902143058 27 233 1.6 4.8 0.00 0.03 0.00 85 1015.9
20260902141601 27 232 1.6 3.2 0.00 0.03 0.00 85 1016.0
20260902134610 26 0 0.0 0.0 0.00 0.03 0.00 86 1016.0
20260902133107 26 0 0.0 3.2 0.00 0.03 0.00 85 1015.8
20260902131607 26 188 1.6 3.2 0.00 0.03 0.00 85 1015.6
20260902130104 25 199 0.0 6.4 0.00 0.03 0.00 85 1015.7
20260902124558 25 207 0.0 3.2 0.00 0.03 0.00 86 1015.5
20260902123105 25 0 0.0 3.2 0.00 0.03 0.00 85 1015.3
20260902121602 25 180 1.6 4.8 0.00 0.03 0.00 83 1014.9
20260902114559 26 187 6.4 16.1 0.00 0.03 0.00 88 1014.9
20260902113056 26 201 1.6 4.8 0.00 0.03 0.00 92 1014.8
20260902111602 26 0 0.0 3.2 0.00 0.03 0.00 92 1014.5
20260902110105 26 234 1.6 4.8 0.00 0.03 0.00 91 1014.6
20260902104618 26 0 0.0 3.2 0.00 0.03 0.00 91 1014.6
20260902103105 26 0 0.0 6.4 0.00 0.03 0.00 91 1014.5
20260902101606 26 215 0.0 6.4 0.00 0.03 0.00 91 1014.5
20260902100123 26 201 1.6 4.8 0.00 0.03 0.00 91 1014.3
20260902094557 26 217 0.0 3.2 0.00 0.03 0.00 91 1014.4
20260902093108 26 217 1.6 4.8 0.00 0.03 0.00 91 1014.4
20260902091616 26 219 1.6 4.8 0.00 0.03 0.00 91 1014.3
20260902090101 26 198 1.6 4.8 0.00 0.03 0.00 91 1014.3
20260902084607 26 221 1.6 4.8 0.00 0.03 0.00 91 1014.2
20260902083111 26 219 1.6 4.8 0.00 0.03 0.00 91 1014.3
20260902081617 26 229 1.6 6.4 0.00 0.03 0.00 91 1014.4
20260902080110 26 211 1.6 6.4 0.00 0.03 0.00 90 1014.6
20260902074606 26 200 3.2 8.0 0.00 0.03 0.00 90 1014.5
20260902073101 26 216 3.2 6.4 0.00 0.03 0.00 90 1014.4
20260902071601 26 203 3.2 11.3 0.00 0.03 0.00 90 1014.5
20260902070107 26 215 3.2 9.7 0.00 0.03 0.00 89 1014.5
20260902064612 26 235 3.2 8.0 0.00 0.03 0.00 89 1014.5
20260902063132 26 242 3.2 6.4 0.00 0.03 0.00 89 1014.6
20260902060137 26 223 1.6 6.4 0.00 0.03 0.00 89 1014.5
20260902054604 26 198 1.6 6.4 0.00 0.03 0.00 88 1014.4
20260902053104 26 208 1.6 4.8 0.00 0.03 0.00 88 1014.5
20260902051604 26 225 1.6 4.8 0.00 0.03 0.00 87 1014.6
20260902050058 26 214 1.6 6.4 0.00 0.03 0.00 87 1014.6
20260902044602 26 219 3.2 6.4 0.00 0.03 0.03 86 1014.6
20260902043109 27 204 3.2 8.0 0.00 0.03 0.03 85 1014.6
20260902041554 27 221 3.2 6.4 0.00 0.03 0.03 85 1014.6
20260902040108 26 0 0.0 3.2 0.00 0.03 0.03 85 1014.6
20260902034604 26 0 0.0 3.2 0.00 0.03 0.03 85 1014.7
20260902033114 26 205 0.0 3.2 0.00 0.03 0.03 85 1014.8
20260902031608 26 0 0.0 0.0 0.00 0.03 0.03 85 1014.5
20260902024618 27 0 0.0 3.2 0.00 0.03 0.03 83 1014.1
20260902023100 27 0 1.6 3.2 0.00 0.03 0.03 83 1014.0
20260902021604 26 0 0.0 0.0 0.00 0.03 0.03 84 1013.7
20260902020133 26 0 0.0 0.0 0.00 0.03 0.03 83 1013.6
20260902014604 26 0 0.0 0.0 0.00 0.03 0.03 83 1013.5
20260902013106 27 0 0.0 0.0 0.00 0.03 0.03 83 1013.2
20260902011555 27 230 1.6 3.2 0.00 0.03 0.03 82 1013.1
20260902010106 27 208 1.6 3.2 0.00 0.03 0.03 81 1013.2
20260902004601 27 0 0.0 3.2 0.00 0.03 0.03 80 1013.3